INMARSAT 3-F1

Last updated on Tue Sep 22 2026 00:03:10 GMT+0000 (Coordinated Universal Time)

1 23839U 96020A 26264.63338169 -.00000116 00000+0 00000+0 0 9998 2 23839 10.7992 45.7161 0007118 156.5095 192.7583 1.00003775111211
UTC large
Height (km)
Speed (km/s)
/
Latitude / Longitude
Inclination (degrees)
Orbital Period (minutes)
Azimuth
Elevation
Range (km)
Doppler Factor

Next 0 passes for location: London (51.5072 / 0.1276)

No passes found over London.
INMARSAT 3-F1